Location: *
(43.9900°N, 3.4811°E)
Time: 16:35:14
(UTC+00:00)

CZ-2C R/B - Pass Details

Date: 25 August 2019
Orbit: 785 x 871 km, 98.3° (Epoch: 16 September)

Event Time Altitude Azimuth Distance (km) Brightness Sun altitude
Rises 21:15:23 0° 10° (N) 3,326 6.3 -25.3°
Reaches altitude 10° 21:17:44 10° 7° (N) 2,402 5.6 -25.6°
Maximum altitude 21:22:58 62° 288° (WNW) 926 3.0 -26.2°
Enters shadow 21:25:16 33° 221° (SW) 1,349 3.6 -26.5°
